• In Lithuania
  • List of Countries
  • For 7 days
  • Water Temperature
  • Satellite Maps
  • Weather Map
  • Weather Widgets
  • user-avatar
    Login

    Hourly Weather Rzeszow

    Today, 22 July, Sunday

    Time Temperature Precipitation Wind Pressure Humidity
    00:00 +19°C° 0 mm 1 mps 740 mmHg 76%
    01:00 +19°C° 0 mm 1 mps 740 mmHg 79%
    02:00 +18°C° 0 mm 1 mps 740 mmHg 81%
    03:00 +18°C° 0 mm 1 mps 740 mmHg 82%
    04:00 +18°C° 0 mm 1 mps 740 mmHg 84%
    05:00 +20°C° 0 mm 1 mps 740 mmHg 79%
    06:00 +22°C° 0 mm 1 mps 740 mmHg 75%
    07:00 +23°C° 0 mm 1 mps 740 mmHg 71%
    08:00 +25°C° 0.1 mm 1 mps 740 mmHg 67%
    09:00 +26°C° 0.1 mm 1 mps 740 mmHg 63%
    10:00 +28°C° 0.1 mm 1 mps 740 mmHg 60%
    11:00 +28°C° 0.5 mm 1 mps 739 mmHg 59%
    12:00 +28°C° 0.5 mm 2 mps 739 mmHg 57%
    13:00 +29°C° 0 mm 1 mps 739 mmHg 51%
    14:00 +29°C° 0.5 mm 2 mps 739 mmHg 54%
    15:00 +29°C° 0.5 mm 2 mps 739 mmHg 57%
    16:00 +28°C° 0.5 mm 2 mps 739 mmHg 60%
    17:00 +27°C° 0.2 mm 2 mps 739 mmHg 65%
    18:00 +25°C° 0.2 mm 2 mps 739 mmHg 70%
    19:00 +24°C° 0.2 mm 2 mps 739 mmHg 75%
    20:00 +23°C° 0.1 mm 2 mps 739 mmHg 77%
    21:00 +22°C° 0.1 mm 1 mps 739 mmHg 79%
    22:00 +21°C° 0.1 mm 1 mps 740 mmHg 81%
    23:00 +20°C° 0 mm 1 mps 740 mmHg 83%

    Tomorrow, 23 July, Monday

    Time Temperature Precipitation Wind Pressure Humidity
    00:00 +20°C° 0 mm 1 mps 740 mmHg 84%
    01:00 +17°C° 0 mm 0 mps 740 mmHg 86%
    02:00 +19°C° 0 mm 1 mps 740 mmHg 87%
    03:00 +19°C° 0 mm 1 mps 739 mmHg 88%
    04:00 +18°C° 0 mm 1 mps 739 mmHg 89%
    05:00 +20°C° 0 mm 1 mps 740 mmHg 86%
    06:00 +20°C° 0 mm 2 mps 740 mmHg 83%
    07:00 +23°C° 0 mm 2 mps 740 mmHg 80%
    08:00 +24°C° 0.4 mm 3 mps 740 mmHg 75%
    09:00 +25°C° 0.4 mm 4 mps 740 mmHg 70%
    10:00 +26°C° 0.4 mm 4 mps 740 mmHg 66%
    11:00 +27°C° 0.5 mm 5 mps 740 mmHg 64%
    12:00 +27°C° 0.5 mm 5 mps 739 mmHg 63%
    13:00 +28°C° 0.5 mm 5 mps 739 mmHg 61%
    14:00 +27°C° 0.5 mm 5 mps 739 mmHg 64%
    15:00 +27°C° 0.5 mm 4 mps 739 mmHg 66%
    16:00 +27°C° 0.5 mm 4 mps 739 mmHg 68%
    17:00 +25°C° 0.6 mm 4 mps 739 mmHg 74%
    18:00 +23°C° 0.6 mm 4 mps 739 mmHg 79%
    19:00 +22°C° 0.6 mm 3 mps 739 mmHg 85%
    20:00 +21°C° 0.5 mm 3 mps 739 mmHg 87%
    21:00 +20°C° 0.5 mm 3 mps 740 mmHg 89%
    22:00 +20°C° 0.5 mm 3 mps 740 mmHg 91%
    23:00 +20°C° 0.5 mm 4 mps 740 mmHg 92%

    Day after tomorrow, 24 July, Tuesday

    Time Temperature Precipitation Wind Pressure Humidity
    00:00 +19°C° 0.5 mm 4 mps 740 mmHg 93%
    01:00 +19°C° 0.5 mm 4 mps 739 mmHg 94%
    02:00 +19°C° 0.2 mm 4 mps 739 mmHg 95%
    03:00 +18°C° 0.2 mm 4 mps 740 mmHg 95%
    04:00 +18°C° 0.2 mm 4 mps 740 mmHg 95%
    05:00 +19°C° 0.4 mm 4 mps 740 mmHg 93%
    06:00 +19°C° 0.4 mm 4 mps 740 mmHg 91%
    07:00 +20°C° 0.4 mm 4 mps 740 mmHg 88%
    08:00 +21°C° 0.1 mm 5 mps 740 mmHg 84%
    09:00 +22°C° 0.1 mm 5 mps 741 mmHg 80%
    10:00 +25°C° 0.1 mm 5 mps 741 mmHg 75%
    11:00 +25°C° 0.4 mm 5 mps 740 mmHg 72%
    12:00 +26°C° 0.4 mm 5 mps 740 mmHg 68%
    13:00 +27°C° 0.4 mm 5 mps 740 mmHg 65%
    14:00 +27°C° 0.4 mm 5 mps 740 mmHg 65%
    15:00 +27°C° 0.4 mm 5 mps 740 mmHg 66%
    16:00 +27°C° 0.4 mm 5 mps 739 mmHg 66%
    17:00 +26°C° 0.2 mm 4 mps 740 mmHg 70%
    18:00 +25°C° 0.2 mm 3 mps 740 mmHg 74%
    19:00 +22°C° 0.2 mm 3 mps 740 mmHg 78%
    20:00 +22°C° 0.1 mm 3 mps 740 mmHg 81%
    21:00 +21°C° 0.1 mm 2 mps 740 mmHg 84%
    22:00 +20°C° 0.1 mm 2 mps 740 mmHg 86%
    23:00 +19°C° 0 mm 2 mps 740 mmHg 88%

    25 July, Wednesday

    Time Temperature Precipitation Wind Pressure Humidity
    00:00 +19°C° 0 mm 2 mps 740 mmHg 90%
    01:00 +18°C° 0 mm 2 mps 740 mmHg 92%
    02:00 +18°C° 0 mm 2 mps 740 mmHg 93%
    03:00 +18°C° 0 mm 2 mps 740 mmHg 94%
    04:00 +18°C° 0 mm 2 mps 740 mmHg 95%
    05:00 +19°C° 0.2 mm 2 mps 740 mmHg 93%
    06:00 +20°C° 0.2 mm 3 mps 740 mmHg 90%
    07:00 +21°C° 0.2 mm 3 mps 740 mmHg 87%
    08:00 +22°C° 0.1 mm 3 mps 741 mmHg 83%
    09:00 +24°C° 0.1 mm 3 mps 741 mmHg 79%
    10:00 +25°C° 0.1 mm 3 mps 741 mmHg 75%
    11:00 +26°C° 0.5 mm 3 mps 740 mmHg 72%
    12:00 +27°C° 0.5 mm 3 mps 740 mmHg 70%
    13:00 +27°C° 0.5 mm 3 mps 740 mmHg 67%
    14:00 +27°C° 1.3 mm 3 mps 740 mmHg 69%
    15:00 +27°C° 1.3 mm 3 mps 740 mmHg 72%
    16:00 +27°C° 1.3 mm 3 mps 740 mmHg 74%
    17:00 +26°C° 0.6 mm 3 mps 740 mmHg 79%
    18:00 +24°C° 0.6 mm 2 mps 739 mmHg 84%
    19:00 +23°C° 0.6 mm 2 mps 739 mmHg 89%
    20:00 +21°C° 0 mm 2 mps 740 mmHg 91%
    21:00 +21°C° 0 mm 2 mps 740 mmHg 92%
    22:00 +21°C° 0 mm 1 mps 740 mmHg 94%
    23:00 +21°C° 0 mm 1 mps 740 mmHg 95%

    26 July, Thursday

    Time Temperature Precipitation Wind Pressure Humidity
    00:00 +20°C° 0 mm 1 mps 740 mmHg 95%
    01:00 +20°C° 0 mm 1 mps 740 mmHg 96%
    02:00 +20°C° 0 mm 1 mps 740 mmHg 96%
    03:00 +20°C° 0 mm 1 mps 740 mmHg 97%
    04:00 +19°C° 0 mm 1 mps 740 mmHg 97%
    05:00 +20°C° 0 mm 1 mps 740 mmHg 95%
    06:00 +21°C° 0 mm 1 mps 741 mmHg 92%
    07:00 +22°C° 0 mm 1 mps 741 mmHg 90%
    08:00 +24°C° 0.2 mm 1 mps 741 mmHg 85%
    09:00 +25°C° 0.2 mm 1 mps 741 mmHg 80%
    10:00 +27°C° 0.2 mm 1 mps 741 mmHg 75%
    11:00 +27°C° 0.2 mm 1 mps 741 mmHg 71%
    12:00 +28°C° 0.2 mm 1 mps 740 mmHg 67%
    13:00 +29°C° 0.2 mm 1 mps 740 mmHg 63%
    14:00 +29°C° 0.5 mm 1 mps 740 mmHg 64%
    15:00 +29°C° 0.5 mm 1 mps 740 mmHg 65%
    16:00 +29°C° 0.5 mm 1 mps 740 mmHg 65%
    17:00 +27°C° 0.2 mm 1 mps 740 mmHg 70%
    18:00 +26°C° 0.2 mm 1 mps 740 mmHg 75%
    19:00 +23°C° 0.2 mm 0 mps 740 mmHg 80%
    20:00 +22°C° 0.2 mm 0 mps 740 mmHg 83%
    21:00 +21°C° 0.2 mm 0 mps 740 mmHg 85%
    22:00 +20°C° 0.2 mm 0 mps 741 mmHg 87%
    23:00 +20°C° 0 mm 0 mps 741 mmHg 88%

    27 July, Friday

    Time Temperature Precipitation Wind Pressure Humidity
    00:00 +20°C° 0 mm 0 mps 741 mmHg 90%
    01:00 +19°C° 0 mm 0 mps 741 mmHg 91%
    02:00 +19°C° 0 mm 0 mps 741 mmHg 91%
    03:00 +19°C° 0 mm 0 mps 741 mmHg 92%
    04:00 +18°C° 0 mm 0 mps 741 mmHg 93%
    05:00 +20°C° 0 mm 0 mps 741 mmHg 90%
    06:00 +23°C° 0 mm 1 mps 741 mmHg 86%
    07:00 +25°C° 0 mm 1 mps 741 mmHg 83%
    08:00 +26°C° 0 mm 1 mps 741 mmHg 77%
    09:00 +28°C° 0 mm 1 mps 741 mmHg 71%
    10:00 +29°C° 0 mm 1 mps 741 mmHg 65%
    11:00 +30°C° 0 mm 1 mps 741 mmHg 62%
    12:00 +30°C° 0 mm 1 mps 741 mmHg 59%
    13:00 +31°C° 0 mm 1 mps 740 mmHg 56%
    14:00 +31°C° 0.4 mm 1 mps 740 mmHg 60%
    15:00 +30°C° 0.4 mm 2 mps 740 mmHg 63%
    16:00 +30°C° 0.4 mm 2 mps 740 mmHg 66%
    17:00 +28°C° 0.8 mm 2 mps 740 mmHg 73%
    18:00 +27°C° 0.8 mm 2 mps 740 mmHg 80%
    19:00 +25°C° 0.8 mm 1 mps 741 mmHg 86%
    20:00 +25°C° 0 mm 1 mps 741 mmHg 88%
    21:00 +24°C° 0 mm 1 mps 741 mmHg 89%
    22:00 +23°C° 0 mm 1 mps 741 mmHg 91%
    23:00 +23°C° 0 mm 1 mps 740 mmHg 92%
    Show more